Latest Weather Observations for Mount Hotham AWS

IDV60801

Issued at 9:35 pm EDT Friday 31 October 2014 (issued every 30 minutes, with the page automatically refreshed every 10 minutes)

About weather observations | Map of weather stations | Latest weather observations for VIC | Other Formats
Station Details ID: 083085 Name: MOUNT HOTHAM Lat: -36.98 Lon: 147.13 Height: 1849.0 m
Data from the previous 72 hours. | See also: Recent months at Mount Hotham AWS
Date/Time
EDT
Temp
°C
App
Temp
°C
Dew
Point
Rel
Hum
%
Delta-T
°C
Wind Press
QNH
hPa
Press
MSL
hPa
Rain
since 9 am
mm
Dir
 
Spd
km/h
Gust
km/h
Spd
kts
Gust
kts
31/09:30pm 14.1 2.9 -0.7 36 6.8 NNW 48 63 26 34 - - 0.0
31/09:00pm 14.1 3.3 -0.4 37 6.7 NNW 46 65 25 35 - - 0.0
31/08:30pm 14.1 2.9 -0.4 37 6.7 NNW 48 67 26 36 - - 0.0
31/08:23pm 13.9 3.6 0.5 40 6.3 NNW 44 63 24 34 - - 0.0
31/08:00pm 13.5 4.0 1.8 45 5.6 NNW 41 54 22 29 - - 0.0
31/07:33pm 13.1 4.9 2.6 49 5.1 NNW 35 54 19 29 - - 0.0
31/07:30pm 13.0 4.3 2.3 48 5.2 NNW 37 54 20 29 - - 0.0
31/07:00pm 13.4 4.7 2.3 47 5.4 NNW 37 56 20 30 - - 0.0
31/06:30pm 13.8 6.0 2.7 47 5.5 NNW 33 54 18 29 - - 0.0
31/06:08pm 14.0 5.4 2.6 46 5.6 NNW 37 57 20 31 - - 0.0
31/06:00pm 13.4 4.5 2.9 49 5.2 NW 39 52 21 28 - - 0.0
31/05:30pm 14.4 6.3 3.2 47 5.6 NW 35 59 19 32 - - 0.0
31/05:10pm 14.2 5.6 2.5 45 5.8 NNW 37 56 20 30 - - 0.0
31/05:00pm 14.6 6.5 3.4 47 5.6 NNW 35 48 19 26 - - 0.0
31/04:33pm 13.9 4.5 2.2 45 5.7 NW 41 59 22 32 - - 0.0
31/04:30pm 13.8 4.8 2.4 46 5.6 NNW 39 56 21 30 - - 0.0
31/04:00pm 15.3 5.6 3.1 44 6.1 NW 43 67 23 36 - - 0.0
31/03:30pm 14.9 5.1 2.4 43 6.2 NW 43 70 23 38 - - 0.0
31/03:00pm 14.8 5.2 3.6 47 5.7 NNW 43 61 23 33 - - 0.0
31/02:34pm 14.7 5.1 3.5 47 5.6 NNW 43 61 23 33 - - 0.0
31/02:30pm 14.3 4.6 2.9 46 5.7 NNW 43 59 23 32 - - 0.0
31/02:10pm 13.4 3.6 2.3 47 5.4 NNW 43 61 23 33 - - 0.0
31/02:00pm 13.3 3.8 1.9 46 5.5 NNW 41 57 22 31 - - 0.0
31/01:36pm 13.9 4.1 2.5 46 5.6 NNW 43 61 23 33 - - 0.0
31/01:30pm 13.7 3.7 2.0 45 5.7 NNW 44 57 24 31 - - 0.0
31/01:00pm 13.1 2.8 2.4 48 5.2 NNW 46 70 25 38 - - 0.0
31/12:30pm 12.4 2.0 2.0 49 5.0 NNW 46 65 25 35 - - 0.0
31/12:00pm 12.5 2.6 1.5 47 5.2 NNW 43 61 23 33 - - 0.0
31/11:58am 13.1 3.4 2.9 50 5.0 NNW 43 61 23 33 - - 0.0
31/11:30am 12.6 2.5 1.6 47 5.3 NNW 44 61 24 33 - - 0.0
31/11:00am 11.4 -0.4 0.5 47 5.0 NNW 52 70 28 38 - - 0.0
31/10:55am 11.8 0.2 1.4 49 4.9 NNW 52 70 28 38 - - 0.0
31/10:30am 10.9 -0.6 -0.2 46 5.0 NNW 50 67 27 36 - - 0.0
31/10:00am 10.6 -0.7 -1.4 43 5.3 NNW 48 61 26 33 - - 0.0
31/09:30am 10.4 -0.6 -1.9 42 5.3 NNW 46 63 25 34 - - 0.0
31/09:00am 9.3 -1.2 -2.3 44 4.9 NNW 43 54 23 29 - - 0.0
31/08:30am 9.4 -0.7 -2.5 43 5.0 N 41 48 22 26 - - 0.0
31/08:00am 8.7 -1.4 -2.6 45 4.7 N 41 56 22 30 - - 0.0
31/07:30am 8.2 -1.1 -1.9 49 4.3 NNW 37 48 20 26 - - 0.0
31/07:00am 7.3 -1.0 -1.6 53 3.8 NNW 32 41 17 22 - - 0.0
31/06:30am 7.0 -1.6 -2.2 52 3.8 NNW 33 43 18 23 - - 0.0
31/06:00am 7.2 -2.2 -2.8 49 4.1 NNW 37 44 20 24 - - 0.0
31/05:30am 6.8 -2.2 -2.9 50 4.0 NNW 35 44 19 24 - - 0.0
31/05:00am 6.9 -0.7 -2.5 51 3.9 NNW 28 35 15 19 - - 0.0
31/04:30am 7.0 -1.4 -2.4 51 3.9 NNW 32 39 17 21 - - 0.0
31/04:00am 7.7 -0.8 -3.5 45 4.6 NNW 32 44 17 24 - - 0.0
31/03:30am 7.2 -0.4 -2.0 52 3.9 NNW 28 35 15 19 - - 0.0
31/03:00am 7.5 -0.1 -2.0 51 4.0 NW 28 35 15 19 - - 0.0
31/02:30am 7.7 -0.8 -2.0 50 4.1 NW 33 44 18 24 - - 0.0
31/02:00am 7.7 -0.6 -1.8 51 4.0 NW 32 41 17 22 - - 0.0
31/01:30am 7.8 -0.6 -2.2 49 4.2 NW 32 41 17 22 - - 0.0
31/01:00am 7.8 -1.5 -2.2 49 4.2 NW 37 46 20 25 - - 0.0
31/12:30am 8.0 -0.9 -2.3 48 4.3 NNW 35 44 19 24 - - 0.0
31/12:00am 7.9 -1.2 -0.8 54 3.8 NNW 37 44 20 24 - - 0.0
 
Date/Time
EDT
Temp
°C
App
Temp
°C
Dew
Point
Rel
Hum
%
Delta-T
°C
Wind Press
QNH
hPa
Press
MSL
hPa
Rain
since 9 am
mm
Dir
 
Spd
km/h
Gust
km/h
Spd
kts
Gust
kts
30/11:30pm 8.1 -1.0 -0.4 55 3.7 NNW 37 46 20 25 - - 0.0
30/11:00pm 8.0 -1.0 -0.2 56 3.6 NNW 37 44 20 24 - - 0.0
30/10:30pm 7.9 -0.7 0.2 58 3.4 NNW 35 43 19 23 - - 0.0
30/10:00pm 8.2 0.1 1.1 61 3.2 NNW 33 46 18 25 - - 0.0
30/09:30pm 8.1 0.3 1.9 65 2.9 NW 32 41 17 22 - - 0.0
30/09:00pm 8.0 1.1 2.3 67 2.7 NNW 28 33 15 18 - - 0.0
30/08:30pm 8.4 1.4 2.2 65 2.9 NW 28 35 15 19 - - 0.0
30/08:00pm 8.5 1.6 2.5 66 2.8 NNW 28 35 15 19 - - 0.0
30/07:30pm 8.7 2.6 2.7 66 2.8 NW 24 33 13 18 - - 0.0
30/07:00pm 9.3 3.6 3.1 65 3.0 NW 22 32 12 17 - - 0.0
30/06:30pm 9.5 2.6 2.8 63 3.2 NW 28 35 15 19 - - 0.0
30/06:00pm 10.0 3.5 2.8 61 3.5 NW 26 35 14 19 - - 0.0
30/05:30pm 10.3 2.8 3.3 62 3.4 NNW 32 43 17 23 - - 0.0
30/05:00pm 10.6 3.1 3.6 62 3.4 NW 32 46 17 25 - - 0.0
30/04:42pm 11.1 4.1 3.9 61 3.6 NW 30 48 16 26 - - 0.0
30/04:30pm 11.0 2.6 3.8 61 3.6 NNW 37 50 20 27 - - 0.0
30/04:00pm 10.6 3.0 3.9 63 3.3 NNW 33 44 18 24 - - 0.0
30/03:30pm 10.3 2.9 4.0 65 3.1 NNW 32 50 17 27 - - 0.0
30/03:00pm 10.5 3.0 4.6 67 3.0 NNW 33 48 18 26 - - 0.0
30/02:47pm 10.6 3.4 4.9 68 2.9 NW 32 54 17 29 - - 0.0
30/02:30pm 10.3 3.4 4.5 67 2.9 NW 30 43 16 23 - - 0.0
30/02:06pm 9.5 2.0 3.7 67 2.8 NW 32 50 17 27 - - 0.0
30/02:00pm 10.7 3.4 5.5 70 2.7 NNW 33 44 18 24 - - 0.0
30/01:30pm 9.8 3.4 5.0 72 2.4 WNW 28 48 15 26 - - 0.0
30/01:22pm 10.0 3.6 5.4 73 2.3 WNW 28 46 15 25 - - 0.0
30/01:00pm 10.0 3.6 5.4 73 2.3 NW 28 39 15 21 - - 0.0
30/12:30pm 9.6 2.8 5.2 74 2.2 NW 30 44 16 24 - - 0.0
30/12:00pm 8.9 1.4 4.3 73 2.3 WNW 33 46 18 25 - - 0.0
30/11:30am 7.8 -0.2 3.8 76 1.9 WNW 35 50 19 27 - - 0.0
30/11:00am 7.1 -0.2 4.4 83 1.3 NW 32 46 17 25 - - 0.0
30/10:30am 7.1 -0.3 4.9 86 1.1 NW 33 48 18 26 - - 0.0
30/10:07am 6.4 -0.9 4.6 88 0.9 NW 32 50 17 27 - - 0.0
30/10:00am 6.6 -0.9 4.6 87 1.0 NW 33 46 18 25 - - 0.0
30/09:30am 6.3 -1.7 3.8 84 1.2 NW 35 46 19 25 - - 0.0
30/09:00am 5.3 -2.4 3.3 87 0.9 NW 33 46 18 25 - - 0.2
30/08:30am 5.6 -2.5 3.4 86 1.0 NW 35 46 19 25 - - 0.2
30/08:20am 5.4 -3.1 3.1 85 1.1 NW 37 57 20 31 - - 0.2
30/08:00am 5.7 -3.2 3.0 83 1.3 NW 39 52 21 28 - - 0.2
30/07:40am 5.1 -2.7 2.6 84 1.1 WNW 33 52 18 28 - - 0.2
30/07:30am 5.0 -2.8 2.7 85 1.1 WNW 33 46 18 25 - - 0.2
30/07:00am 4.7 -3.1 2.6 86 1.0 NW 33 54 18 29 - - 0.2
30/06:40am 4.6 -3.3 2.5 86 1.0 NW 33 52 18 28 - - 0.2
30/06:30am 4.4 -3.9 2.3 86 1.0 NW 35 46 19 25 - - 0.2
30/06:00am 4.2 -4.1 2.2 87 0.9 NW 35 48 19 26 - - 0.2
30/05:30am 4.3 -4.7 2.2 86 0.9 NW 39 52 21 28 - - 0.2
30/05:00am 4.2 -4.5 2.1 86 0.9 NW 37 54 20 29 - - 0.2
30/04:41am 4.1 -4.2 2.3 88 0.8 NW 35 54 19 29 - - 0.2
30/04:30am 4.2 -4.5 2.2 87 0.9 NW 37 50 20 27 - - 0.2
30/04:00am 4.3 -4.4 2.2 86 0.9 NW 37 46 20 25 - - 0.2
30/03:30am 4.1 -4.1 2.5 89 0.7 NW 35 46 19 25 - - 0.2
30/03:00am 4.4 -3.9 2.4 87 0.9 NW 35 46 19 25 - - 0.2
30/02:30am 4.2 -4.4 2.4 88 0.8 NW 37 48 20 26 - - 0.2
30/02:00am 4.5 -3.7 2.7 88 0.8 NW 35 48 19 26 - - 0.2
30/01:30am 4.4 -3.4 2.9 90 0.7 NW 33 46 18 25 - - 0.2
30/01:00am 4.3 -3.4 2.3 87 0.9 NW 32 41 17 22 - - 0.2
30/12:30am 4.3 -3.3 2.7 89 0.7 NW 32 44 17 24 - - 0.2
30/12:00am 3.9 -3.3 2.9 93 0.5 NW 30 37 16 20 - - 0.2
 
Date/Time
EDT
Temp
°C
App
Temp
°C
Dew
Point
Rel
Hum
%
Delta-T
°C
Wind Press
QNH
hPa
Press
MSL
hPa
Rain
since 9 am
mm
Dir
 
Spd
km/h
Gust
km/h
Spd
kts
Gust
kts
29/11:30pm 3.9 -3.9 2.7 92 0.5 NW 33 43 18 23 - - 0.2
29/11:00pm 4.2 -3.6 2.9 91 0.6 NW 33 44 18 24 - - 0.2
29/10:30pm 4.6 -3.0 3.1 90 0.7 NW 32 46 17 25 - - 0.2
29/10:00pm 4.7 -2.4 3.4 91 0.6 NW 30 41 16 22 - - 0.2
29/09:30pm 4.5 -2.2 3.6 94 0.4 NW 28 35 15 19 - - 0.2
29/09:00pm 4.9 -0.9 4.3 96 0.3 NW 24 30 13 16 - - 0.2
29/08:30pm 4.8 -1.4 4.2 96 0.3 NW 26 32 14 17 - - 0.2
29/08:00pm 5.3 -1.3 4.4 94 0.4 NW 28 35 15 19 - - 0.2
29/07:30pm 5.6 -1.7 4.4 92 0.6 NW 32 39 17 21 - - 0.2
29/07:00pm 6.3 -0.2 4.8 90 0.7 NW 28 37 15 20 - - 0.2
29/06:30pm 7.0 0.9 4.8 86 1.1 NW 26 32 14 17 - - 0.2
29/06:00pm 8.2 2.5 4.8 79 1.7 WNW 24 33 13 18 - - 0.2
29/05:30pm 8.9 3.2 5.1 77 1.9 WNW 24 35 13 19 - - 0.2
29/05:00pm 9.1 3.4 4.9 75 2.1 WNW 24 33 13 18 - - 0.2
29/04:30pm 8.8 3.0 4.6 75 2.1 NW 24 41 13 22 - - 0.2
29/04:00pm 7.8 2.0 4.2 78 1.8 NW 24 32 13 17 - - 0.2
29/03:30pm 8.3 2.6 4.7 78 1.8 NNW 24 33 13 18 - - 0.2
29/03:00pm 9.6 4.4 5.6 76 2.0 WNW 22 35 12 19 - - 0.2
29/02:30pm 9.2 3.2 3.6 68 2.7 WNW 24 37 13 20 - - 0.2
29/02:00pm 8.0 2.8 3.3 72 2.2 WNW 20 30 11 16 - - 0.2
29/01:30pm 8.7 3.3 4.3 74 2.2 WNW 22 32 12 17 - - 0.2
29/01:00pm 8.6 3.5 4.2 74 2.2 NW 20 28 11 15 - - 0.2
29/12:30pm 8.1 2.4 2.8 69 2.5 W 22 30 12 16 - - 0.2
29/12:00pm 7.8 2.3 2.1 67 2.6 W 20 28 11 15 - - 0.2
29/11:30am 6.8 2.5 0.9 66 2.6 W 13 20 7 11 - - 0.0
29/11:00am 7.5 2.7 0.5 61 3.1 WSW 15 19 8 10 - - 0.0
29/10:30am 7.3 2.0 -0.6 57 3.4 SSW 17 20 9 11 - - 0.0
29/10:00am 6.9 1.2 -0.8 58 3.3 SSW 19 24 10 13 - - 0.0
29/09:30am 6.1 0.7 -1.3 59 3.1 SSW 17 22 9 12 - - 0.0
29/09:00am 6.0 -1.2 -2.1 56 3.4 S 26 32 14 17 - - 3.6
29/08:30am 5.6 -1.2 -2.2 57 3.2 S 24 32 13 17 - - 3.6
29/08:00am 4.9 -1.3 -3.1 56 3.2 S 20 30 11 16 - - 3.6
29/07:30am 4.2 -3.7 -4.3 54 3.3 S 28 35 15 19 - - 3.6
29/07:00am 3.3 -4.5 -3.9 59 2.8 SSE 28 35 15 19 - - 3.6
29/06:30am 2.8 -6.0 -4.2 60 2.7 S 33 43 18 23 - - 3.6
29/06:00am 2.4 -6.8 -4.1 62 2.6 S 35 43 19 23 - - 3.6
29/05:30am 2.3 -6.5 -4.4 61 2.6 S 33 43 18 23 - - 3.6
29/05:00am 2.1 -6.7 -4.2 63 2.5 S 33 48 18 26 - - 3.6
29/04:30am 2.3 -8.0 -4.2 62 2.6 S 41 52 22 28 - - 3.6
29/04:00am 1.2 -7.1 -0.3 90 0.6 SSW 33 41 18 22 - - 3.6
29/03:30am 1.0 -6.9 0.9 99 0.0 SSW 32 37 17 20 - - 3.6
29/03:00am 0.8 -7.2 0.7 99 0.0 SW 32 43 17 23 - - 3.6
29/02:30am 0.3 -6.2 0.2 99 0.0 WNW 24 35 13 19 - - 3.6
29/02:00am 0.6 -5.1 0.5 99 0.0 WNW 20 28 11 15 - - 3.6
29/01:30am 0.6 -6.2 0.5 99 0.0 W 26 37 14 20 - - 3.6
29/01:09am 0.6 -7.4 0.5 99 0.0 W 32 54 17 29 - - 3.6
29/01:00am 0.8 -7.3 0.7 99 0.0 W 33 48 18 26 - - 3.6
29/12:30am 0.9 -7.2 0.8 99 0.0 W 33 48 18 26 - - 3.6
29/12:00am 1.4 -7.0 1.3 99 0.0 WNW 35 46 19 25 - - 3.6
 
Date/Time
EDT
Temp
°C
App
Temp
°C
Dew
Point
Rel
Hum
%
Delta-T
°C
Wind Press
QNH
hPa
Press
MSL
hPa
Rain
since 9 am
mm
Dir
 
Spd
km/h
Gust
km/h
Spd
kts
Gust
kts
28/11:41pm 1.4 -6.5 1.3 99 0.0 W 32 52 17 28 - - 3.6
28/11:30pm 1.5 -6.5 1.4 99 0.0 W 33 44 18 24 - - 3.6
28/11:00pm 1.5 -6.3 1.4 99 0.0 W 32 54 17 29 - - 3.6
28/10:45pm 1.6 -6.4 1.5 99 0.0 WNW 33 54 18 29 - - 3.6
28/10:30pm 1.5 -6.3 1.4 99 0.0 W 32 43 17 23 - - 3.6
28/10:15pm 1.7 -5.7 1.6 99 0.0 W 30 48 16 26 - - 3.6
28/10:00pm 1.7 -6.1 1.6 99 0.0 W 32 44 17 24 - - 3.6

Other Formats:

Comma delimited format used in spreadsheet applications
http://www.bom.gov.au/fwo/IDV60801/IDV60801.94906.axf

JavaScript Object Notation format (JSON) in row-major order
http://www.bom.gov.au/fwo/IDV60801/IDV60801.94906.json